• En España
  • Lista de países
  • Para 7 días
  • Temperatura del agua
  • Mapa Satelital
  • El tiempo en el mapa
  • Informadores
  • user-avatar
    Iniciar sesión

    Tiempo cada hora Durres

    Hoy, 19 Junio, Martes

    Tiempo Temperatura Precipitaciones Viento Presión Humedad
    00:00 +22°C° 0 mm 5 mps 757 mmHg 74%
    01:00 +21°C° 0 mm 5 mps 757 mmHg 73%
    02:00 +21°C° 0 mm 5 mps 757 mmHg 73%
    03:00 +21°C° 0 mm 5 mps 757 mmHg 74%
    04:00 +20°C° 0 mm 5 mps 757 mmHg 74%
    05:00 +22°C° 0 mm 5 mps 758 mmHg 70%
    06:00 +25°C° 0 mm 5 mps 758 mmHg 67%
    07:00 +27°C° 0 mm 5 mps 758 mmHg 63%
    08:00 +28°C° 0 mm 4 mps 758 mmHg 58%
    09:00 +29°C° 0 mm 4 mps 758 mmHg 52%
    10:00 +32°C° 0 mm 4 mps 758 mmHg 47%
    11:00 +33°C° 0,1 mm 4 mps 758 mmHg 46%
    12:00 +33°C° 0,1 mm 4 mps 758 mmHg 45%
    13:00 +34°C° 0,1 mm 4 mps 758 mmHg 43%
    14:00 +33°C° 0,1 mm 5 mps 758 mmHg 45%
    15:00 +33°C° 0,1 mm 5 mps 758 mmHg 46%
    16:00 +33°C° 0,1 mm 6 mps 758 mmHg 47%
    17:00 +30°C° 0,2 mm 6 mps 758 mmHg 54%
    18:00 +29°C° 0,2 mm 5 mps 759 mmHg 62%
    19:00 +27°C° 0,2 mm 5 mps 759 mmHg 69%
    20:00 +26°C° 0,3 mm 4 mps 759 mmHg 70%
    21:00 +25°C° 0,3 mm 4 mps 760 mmHg 72%
    22:00 +25°C° 0,3 mm 3 mps 760 mmHg 73%
    23:00 +24°C° 0,1 mm 3 mps 760 mmHg 74%

    Mañana, 20 Junio, Miércoles

    Tiempo Temperatura Precipitaciones Viento Presión Humedad
    00:00 +24°C° 0,1 mm 3 mps 760 mmHg 74%
    01:00 +22°C° 0,1 mm 3 mps 760 mmHg 74%
    02:00 +22°C° 0,2 mm 3 mps 760 mmHg 74%
    03:00 +21°C° 0,2 mm 3 mps 760 mmHg 74%
    04:00 +21°C° 0,2 mm 3 mps 761 mmHg 74%
    05:00 +24°C° 0,2 mm 3 mps 761 mmHg 71%
    06:00 +25°C° 0,2 mm 3 mps 761 mmHg 67%
    07:00 +27°C° 0,2 mm 3 mps 761 mmHg 63%
    08:00 +29°C° 0 mm 3 mps 761 mmHg 56%
    09:00 +31°C° 0 mm 2 mps 761 mmHg 49%
    10:00 +32°C° 0 mm 2 mps 761 mmHg 42%
    11:00 +34°C° 0 mm 2 mps 761 mmHg 40%
    12:00 +34°C° 0 mm 3 mps 761 mmHg 39%
    13:00 +35°C° 0 mm 3 mps 761 mmHg 38%
    14:00 +34°C° 0 mm 3 mps 761 mmHg 41%
    15:00 +34°C° 0 mm 4 mps 760 mmHg 44%
    16:00 +33°C° 0 mm 4 mps 760 mmHg 47%
    17:00 +32°C° 0,1 mm 4 mps 760 mmHg 53%
    18:00 +29°C° 0,1 mm 4 mps 760 mmHg 59%
    19:00 +27°C° 0,1 mm 3 mps 761 mmHg 65%
    20:00 +26°C° 0,1 mm 3 mps 761 mmHg 67%
    21:00 +25°C° 0,1 mm 2 mps 761 mmHg 68%
    22:00 +25°C° 0,1 mm 2 mps 762 mmHg 69%
    23:00 +24°C° 0,2 mm 2 mps 762 mmHg 69%

    Pasado mañana, 21 Junio, Jueves

    Tiempo Temperatura Precipitaciones Viento Presión Humedad
    00:00 +24°C° 0,2 mm 2 mps 761 mmHg 69%
    01:00 +23°C° 0,2 mm 2 mps 761 mmHg 69%
    02:00 +23°C° 0,2 mm 2 mps 761 mmHg 67%
    03:00 +23°C° 0,2 mm 2 mps 761 mmHg 66%
    04:00 +23°C° 0,2 mm 2 mps 761 mmHg 65%
    05:00 +24°C° 0,1 mm 2 mps 761 mmHg 62%
    06:00 +26°C° 0,1 mm 2 mps 761 mmHg 58%
    07:00 +28°C° 0,1 mm 2 mps 761 mmHg 55%
    08:00 +29°C° 0,1 mm 1 mps 760 mmHg 51%
    09:00 +31°C° 0,1 mm 1 mps 760 mmHg 46%
    10:00 +32°C° 0,1 mm 1 mps 760 mmHg 42%
    11:00 +34°C° 0,1 mm 2 mps 760 mmHg 42%
    12:00 +34°C° 0,1 mm 3 mps 760 mmHg 42%
    13:00 +34°C° 0,1 mm 3 mps 759 mmHg 42%
    14:00 +34°C° 0,2 mm 3 mps 759 mmHg 46%
    15:00 +33°C° 0,2 mm 4 mps 759 mmHg 50%
    16:00 +32°C° 0,2 mm 4 mps 759 mmHg 54%
    17:00 +30°C° 0,1 mm 3 mps 759 mmHg 60%
    18:00 +28°C° 0,1 mm 2 mps 759 mmHg 66%
    19:00 +26°C° 0,1 mm 2 mps 759 mmHg 72%
    20:00 +26°C° 0 mm 1 mps 759 mmHg 73%
    21:00 +25°C° 0 mm 1 mps 759 mmHg 74%
    22:00 +24°C° 0 mm 1 mps 759 mmHg 75%
    23:00 +24°C° 0,1 mm 1 mps 759 mmHg 75%

    22 Junio, Viernes

    Tiempo Temperatura Precipitaciones Viento Presión Humedad
    00:00 +23°C° 0,1 mm 2 mps 759 mmHg 76%
    01:00 +23°C° 0,1 mm 2 mps 759 mmHg 76%
    02:00 +23°C° 0,1 mm 2 mps 758 mmHg 76%
    03:00 +21°C° 0,1 mm 2 mps 758 mmHg 77%
    04:00 +21°C° 0,1 mm 2 mps 758 mmHg 77%
    05:00 +24°C° 0 mm 2 mps 758 mmHg 73%
    06:00 +25°C° 0 mm 2 mps 758 mmHg 68%
    07:00 +27°C° 0 mm 2 mps 758 mmHg 64%
    08:00 +28°C° 0 mm 2 mps 758 mmHg 59%
    09:00 +29°C° 0 mm 2 mps 758 mmHg 55%
    10:00 +31°C° 0 mm 3 mps 758 mmHg 51%
    11:00 +31°C° 0 mm 3 mps 757 mmHg 51%
    12:00 +31°C° 0 mm 3 mps 757 mmHg 50%
    13:00 +33°C° 0 mm 4 mps 757 mmHg 49%
    14:00 +33°C° 0 mm 3 mps 757 mmHg 50%
    15:00 +31°C° 0 mm 3 mps 756 mmHg 51%
    16:00 +31°C° 0 mm 3 mps 756 mmHg 53%
    17:00 +29°C° 0 mm 3 mps 756 mmHg 59%
    18:00 +28°C° 0 mm 3 mps 756 mmHg 65%
    19:00 +26°C° 0 mm 2 mps 757 mmHg 71%
    20:00 +25°C° 0 mm 2 mps 757 mmHg 72%
    21:00 +24°C° 0 mm 3 mps 757 mmHg 74%
    22:00 +22°C° 0 mm 3 mps 757 mmHg 76%
    23:00 +22°C° 0,1 mm 3 mps 757 mmHg 77%

    23 Junio, Sábado

    Tiempo Temperatura Precipitaciones Viento Presión Humedad
    00:00 +22°C° 0,1 mm 3 mps 757 mmHg 77%
    01:00 +21°C° 0,1 mm 3 mps 758 mmHg 77%
    02:00 +21°C° 0,2 mm 3 mps 757 mmHg 77%
    03:00 +21°C° 0,2 mm 3 mps 757 mmHg 77%
    04:00 +20°C° 0,2 mm 4 mps 757 mmHg 77%
    05:00 +22°C° 0,1 mm 4 mps 758 mmHg 73%
    06:00 +25°C° 0,1 mm 4 mps 758 mmHg 68%
    07:00 +26°C° 0,1 mm 3 mps 758 mmHg 64%
    08:00 +28°C° 0,3 mm 3 mps 758 mmHg 60%
    09:00 +29°C° 0,3 mm 3 mps 758 mmHg 56%
    10:00 +31°C° 0,3 mm 3 mps 758 mmHg 52%
    11:00 +30°C° 0,2 mm 3 mps 758 mmHg 54%
    12:00 +30°C° 0,2 mm 4 mps 758 mmHg 55%
    13:00 +30°C° 0,2 mm 5 mps 758 mmHg 57%
    14:00 +30°C° 0,1 mm 5 mps 758 mmHg 57%
    15:00 +29°C° 0,1 mm 5 mps 758 mmHg 56%
    16:00 +29°C° 0,1 mm 4 mps 758 mmHg 56%
    17:00 +28°C° 0 mm 4 mps 758 mmHg 60%
    18:00 +27°C° 0 mm 4 mps 758 mmHg 65%
    19:00 +25°C° 0 mm 4 mps 758 mmHg 69%
    20:00 +23°C° 0,1 mm 4 mps 759 mmHg 71%
    21:00 +22°C° 0,1 mm 4 mps 759 mmHg 72%
    22:00 +22°C° 0,1 mm 4 mps 759 mmHg 74%
    23:00 +21°C° 0,4 mm 4 mps 759 mmHg 75%

    24 Junio, Domingo

    Tiempo Temperatura Precipitaciones Viento Presión Humedad
    00:00 +21°C° 0,4 mm 4 mps 759 mmHg 76%
    01:00 +20°C° 0,4 mm 4 mps 759 mmHg 77%
    02:00 +20°C° 0,7 mm 4 mps 759 mmHg 77%
    03:00 +19°C° 0,7 mm 4 mps 759 mmHg 77%
    04:00 +19°C° 0,7 mm 4 mps 759 mmHg 77%
    05:00 +20°C° 0,4 mm 4 mps 759 mmHg 74%
    06:00 +21°C° 0,4 mm 4 mps 759 mmHg 70%
    07:00 +23°C° 0,4 mm 4 mps 759 mmHg 67%
    08:00 +25°C° 0 mm 4 mps 759 mmHg 63%
    09:00 +27°C° 0 mm 3 mps 759 mmHg 58%
    10:00 +29°C° 0 mm 3 mps 759 mmHg 54%
    11:00 +29°C° 0,1 mm 4 mps 759 mmHg 53%
    12:00 +30°C° 0,1 mm 4 mps 759 mmHg 52%
    13:00 +32°C° 0,1 mm 4 mps 759 mmHg 52%
    14:00 +30°C° 0,2 mm 5 mps 759 mmHg 53%
    15:00 +30°C° 0,2 mm 5 mps 758 mmHg 54%
    16:00 +29°C° 0,2 mm 5 mps 758 mmHg 55%
    17:00 +28°C° 0,1 mm 5 mps 759 mmHg 61%
    18:00 +26°C° 0,1 mm 5 mps 759 mmHg 66%
    19:00 +25°C° 0,1 mm 4 mps 759 mmHg 71%
    20:00 +23°C° 0,1 mm 4 mps 759 mmHg 73%
    21:00 +22°C° 0,1 mm 4 mps 759 mmHg 76%
    22:00 +21°C° 0,1 mm 4 mps 760 mmHg 78%
    23:00 +21°C° 0,3 mm 3 mps 760 mmHg 78%
    Mostrar más